Regional Weather Roundup
Issued by NWS

Home | Current Version | Previous Version | Text Only | Print | Product List | Glossary On
Versions: 1 2 3 4 5 6 7 8 9 10 11 12 13 14 15 16 17 18 19 20 21 22 23 24 25 26 27 28 29 30 31 32 33 34 35 36 37 38 39 40 41 42 43 44 45 46 47 48 49 50
000
ASUS45 KCYS 110910
RWRWY

WYOMING REGIONAL WEATHER ROUNDUP
NATIONAL WEATHER SERVICE CHEYENNE WY
300 AM MDT FRI JUL 11 2014

NOTE:  "FAIR" INDICATES FEW OR NO CLOUDS BELOW 12,000 FEET
WITH NO SIGNIFICANT WEATHER AND/OR OBSTRUCTIONS TO VISIBILITY.

WYZ001-111000-
YELLOWSTONE NATIONAL PARK

CITY           SKY/WX    TMP DP  RH WIND       PRES   REMARKS
LK YELLOWSTONE   N/A     44  42  93 CALM      30.28S
W YELLOWSTONE  NOT AVBL

$$
WYZ002>013-054>058-071-098>099-111000-
NORTHERN WYOMING

CITY           SKY/WX    TMP DP  RH WIND       PRES   REMARKS
JACKSON        CLEAR     52  46  82 NW6       30.17S
CODY           CLEAR     66  54  63 SW13      30.04F
GREYBULL       PTCLDY    68  52  56 E6        29.97R
WORLAND        MOCLDY    68  54  60 SE8       29.98F
SHERIDAN       PTCLDY    60  54  80 CALM      29.95S
BUFFALO        PTCLDY    67  51  56 W8        30.02F
GILLETTE       CLEAR     64  55  72 SE3       29.99R
HULETT         FAIR      64  55  72 MISG      30.00
NEWCASTLE      FAIR      63  55  77 N7        30.00

$$
WYZ014>020-022>026-101>103-111000-
CENTRAL WYOMING

CITY           SKY/WX    TMP DP  RH WIND       PRES   REMARKS
BIG PINEY      MOCLDY    56  50  80 SE7       30.22S
PINEDALE       PTSUNNY   54  52  94 CALM      30.23F
DUBOIS         FAIR      54  43  66 NW6       30.20S
LANDER         MOCLDY    66  54  65 NW5       30.06R
RIVERTON       MOCLDY    65  52  62 N5        30.07S
CASPER         MOCLDY    61  54  77 SW6       30.07R
DOUGLAS        PTCLDY    64  61  90 CALM      30.05S

$$
WYZ021-027>030-104>119-111000-
SOUTHERN WYOMING

CITY           SKY/WX    TMP DP  RH WIND       PRES   REMARKS
EVANSTON       CLOUDY    58  54  86 W10       30.24F
KEMMERER       CLOUDY    59  52  77 SW3       30.24F
FORT BRIDGER   CLOUDY    59  55  84 SW14      30.25S
ROCK SPRINGS   CLOUDY    61  53  75 W9        30.21R
DIXON          DRIZZLE   62  56  83 NE6       30.22F
RAWLINS        MOCLDY    60  54  80 SW7       30.20S
SARATOGA       FAIR      59  54  82 SE14G20   30.23F
LARAMIE        PTCLDY    56  53  90 SW13      30.23F
CHEYENNE       MOCLDY    62  56  80 W5        30.15S
TORRINGTON     CLOUDY    66  64  93 E8        29.99F

$$


USA.gov is the U.S. government's official web portal to all federal, state and local government web resources and services.